This demonstration page uses our WeatherBlox Daily Observations layout. Learn more.

Left ArrowRight Arrow

Hourly Observations for September 8, 2018

Temp ( °F °C ) Dew Point ( °F °C ) Humidity (%) Winds ( mph kmh ) Pressure ( in mb ) Visibility ( mi km ) Precip ( " mm )
12:54 am 00:54 Cloudy 63 17.2 55 12.8 76 76 NNE 6 9 30.19 1022 10 16 0.00 0.00
1:54 am 01:54 Cloudy 63 17.2 56 13.3 78 78 NE 7 11 30.18 1022 10 16 0.00 0.00
2:23 am 02:23 Cloudy 63 17.2 56 13.3 78 78 NE 8 13 30.18 1022 10 16 0.00 0.00
2:54 am 02:54 Cloudy 62 16.7 56 13.3 80 80 NE 9 15 30.17 1022 9 14 0.00 0.00
3:23 am 03:23 Cloudy 62 16.7 56 13.3 80 80 NNE 6 9 30.18 1022 10 16 0.00 0.00
3:54 am 03:54 Cloudy 62 16.7 56 13.3 80 80 NNE 5 7 30.16 1022 10 16 0.00 0.00
4:05 am 04:05 Cloudy 62 16.7 56 13.3 80 80 N 6 9 30.18 1022 10 16 0.00 0.00
4:54 am 04:54 Cloudy 61 16.1 56 13.3 84 84 N 8 13 30.16 1021 10 16 0.00 0.00
5:54 am 05:54 Cloudy 60 15.6 56 13.3 86 86 N 7 11 30.15 1021 10 16 0.00 0.00
6:21 am 06:21 Cloudy 60 15.6 56 13.3 86 86 N 6 9 30.18 1022 10 16 0.00 0.00
8:41 am 08:41 Cloudy 61 16.1 56 13.3 84 84 NE 9 15 30.15 1021 10 16 0.00 0.00
8:54 am 08:54 Cloudy 62 16.7 56 13.3 80 80 NE 8 13 30.15 1021 10 16 0.00 0.00
9:54 am 09:54 Cloudy 64 17.8 57 13.9 78 78 NE 7 11 30.15 1021 10 16 0.00 0.00
10:23 am 10:23 Cloudy 65 18.3 57 13.9 76 76 ENE 8 13 30.18 1022 10 16 0.00 0.00
10:54 am 10:54 Cloudy 65 18.3 58 14.4 78 78 NE 6 9 30.16 1021 10 16 0.00 0.00
11:54 am 11:54 Cloudy 66 18.9 58 14.4 75 75 VRB 3 6 30.15 1021 10 16 0.00 0.00
12:54 pm 12:54 Cloudy 67 19.4 59 15 76 76 NE 9 15 30.14 1021 10 16 0.00 0.00
1:54 pm 13:54 Cloudy 68 20 60 15.6 76 76 ENE 7 11 30.13 1020 9 14 0.00 0.00
2:54 pm 14:54 Cloudy 69 20.6 60 15.6 73 73 E 8 13 30.11 1020 10 16 0.00 0.00
3:14 pm 15:14 Cloudy 70 21.1 61 16.1 73 73 E 7 11 30.09 1019 10 16 0.00 0.00
3:54 pm 15:54 Cloudy 70 21.1 61 16.1 73 73 ENE 10 17 30.09 1019 10 16 0.00 0.00
4:54 pm 16:54 Cloudy 72 22.2 62 16.7 71 71 NE 5 7 30.08 1019 10 16 0.00 0.00
5:08 pm 17:08 Mostly Cloudy 72 22.2 61 16.1 68 68 NNE 3 6 30.06 1018 10 16 0.00 0.00
5:54 pm 17:54 Partly Cloudy 74 23.3 62 16.7 67 67 NNW 3 6 30.06 1018 10 16 0.00 0.00
6:54 pm 18:54 Mostly Sunny 73 22.8 61 16.1 66 66 Calm 30.05 1018 10 16 0.00 0.00
7:54 pm 19:54 Clear 68 20 59 15 73 73 Calm 30.06 1018 10 16 0.00 0.00
8:54 pm 20:54 Mostly Cloudy 68 20 62 16.7 81 81 Calm 30.06 1018 10 16 0.00 0.00
9:54 pm 21:54 Partly Cloudy 66 18.9 56 13.3 70 70 ESE 5 7 30.08 1019 10 16 0.00 0.00
10:54 pm 22:54 Cloudy 65 18.3 54 12.2 68 68 E 8 13 30.08 1019 10 16 0.00 0.00
11:54 pm 23:54 Cloudy 65 18.3 57 13.9 76 76 ESE 3 6 30.09 1019 10 16 0.00 0.00

Powered by AerisWeather